Location: Montoro
(43.4500°N, 13.4167°E)
Time: 02:12:40
(UTC+00:00)

Daily predictions for brighter satellites

Satellite Brightness Start Highest point End
(mag) Time Altitude Azimuth Time Altitude Azimuth Time Altitude Azimuth
CZ-4C R/B 4.5 02:31:21 28° SE 02:31:21 28° SE 02:34:47 10° SE
FALCON 9 R/B 3.8 02:59:04 42° SSE 02:59:04 42° SSE 03:13:06 10° E
Cosmos 1092 Rocket 4.4 03:24:51 49° NNE 03:26:11 60° ENE 03:32:14 10° SSE
USA 234 3.3 03:37:41 10° NE 03:44:15 74° SE 03:46:10 48° SSW
Cosmos 44 4.0 03:46:10 45° SE 03:46:32 47° ESE 03:50:54 10° NE
COSMO-SKYMED 1 3.9 03:42:35 10° SE 03:46:36 37° ENE 03:47:26 34° NE
GEOS 3 Rocket 4.4 03:46:24 10° ESE 03:51:13 45° NE 03:52:23 39° N
Cosmos 2263 Rocket 2.6 03:57:51 49° N 03:57:51 49° N 04:02:01 10° NNE
Cosmos 1741 Rocket 4.3 03:56:00 50° NNE 03:57:10 65° ENE 04:02:21 10° SSE
ALOS 3.8 03:54:56 10° NNE 03:59:15 36° E 04:03:33 10° SSE
Cosmos 1452 Rocket 3.7 04:10:27 54° NNW 04:10:27 54° NNW 04:14:51 10° NNE
Okean O Rocket 3.4 04:09:13 10° NNE 04:13:12 33° E 04:17:11 10° SSE
Meteor 1-20 Rocket 4.2 04:07:25 10° SSW 04:13:13 66° WNW 04:19:02 10° N
CZ-4C R/B 4.3 04:16:37 22° SW 04:16:37 22° SW 04:20:48 10° SSW
Cosmos 1850 Rocket 3.9 04:13:20 49° NNW 04:14:52 85° WSW 04:20:12 10° SSE
FENGYUN 3A 4.4 04:10:07 10° NNE 04:15:23 52° E 04:20:36 10° S
Cosmos 2026 Rocket 3.9 04:15:30 12° NNW 04:21:16 74° W 04:27:31 10° S
Okean 1-7 4.5 04:29:51 24° SSW 04:29:51 24° SSW 04:31:50 10° SSW
Cosmos 1844 Rocket 3.6 04:22:32 10° S 04:27:52 48° ESE 04:33:13 10° NE
Okean 1 4.1 04:33:11 36° SW 04:33:11 36° SW 04:35:50 10° S
Cosmos 2279 Rocket 3.9 04:26:17 10° S 04:32:30 89° E 04:38:46 10° N
SL-23 DEB 4.0 04:33:10 43° NNE 04:33:10 43° NNE 04:35:42 10° NE
SKYMED 2 3.5 04:30:18 10° S 04:34:37 67° W 04:36:06 39° NNW
CZ-4B R/B 3.8 04:33:44 10° NNE 04:39:20 62° ESE 04:44:56 10° S
USA 238 DEB 4.1 04:35:23 10° SSW 04:41:55 63° ESE 04:48:41 10° NE
USA 238 4.1 04:35:30 10° SSW 04:42:02 62° ESE 04:48:47 10° NE
ATLAS CENTAUR R/B 3.2 04:39:25 14° N 04:42:04 24° NE 04:45:21 10° E
SJ-12 3.8 04:40:22 10° N 04:44:26 62° WNW 04:48:28 10° SSW
Cosmos 1634 Rocket 4.2 04:39:55 10° SSW 04:45:49 45° WNW 04:51:44 10° N
BREEZE-M DEB (TANK) 1.3 04:47:25 67° SSE 04:47:25 67° SSE 04:49:55 10° ESE
Cosmos 1943 4.1 04:47:41 27° W 04:47:49 27° WSW 04:52:27 10° SSW
Cosmos 405 3.7 04:45:17 11° N 04:48:33 52° ENE 04:51:59 10° SSE
Cosmos 1331 Rocket 3.9 04:45:25 10° SSW 04:50:34 85° WNW 04:55:47 10° NNE
PSLV R/B 4.4 04:51:00 10° N 04:54:47 36° WNW 04:58:33 10° SW
SL-24 R/B 4.3 04:51:01 10° SSE 04:55:19 69° ENE 04:59:33 10° N
USA 116 4.2 04:54:57 10° S 04:59:30 62° W 05:04:34 10° NNW
Cosmos 1536 3.5 04:56:35 10° S 05:00:35 57° E 05:04:34 10° NNE
H-2A R/B 4.4 04:57:20 10° NNE 05:00:50 36° E 05:04:21 10° SSE
Okean 3 3.5 04:57:57 15° NNW 05:01:14 55° W 05:05:20 10° S
Geosat 4.1 04:57:03 10° SSE 05:01:58 55° WSW 05:05:42 17° NW
ADEOS Rocket 4.0 04:56:20 10° SE 05:02:52 51° ENE 05:08:48 10° N
Orbus 7S? 2.4 05:03:14 43° W 05:03:41 52° NW 05:06:11 10° NE
Cosmos 1110 Rocket 4.0 05:01:26 10° SW 05:06:31 55° WNW 05:11:37 10° NNE
Cosmos 1655 Rocket 4.0 05:06:47 10° NNW 05:12:54 61° W 05:19:01 10° S
PAYLOAD B 4.3 05:09:17 10° N 05:14:39 52° WNW 05:20:00 10° SW
Meteor 1-11 Rocket 3.8 05:09:07 10° S 05:14:53 85° W 05:20:50 10° N
Cosmos 332 Rocket 3.9 05:10:13 10° SW 05:15:01 55° WNW 05:19:52 10° NNE
Cosmos 1908 Rocket 4.3 05:11:05 10° S 05:15:27 58° E 05:19:52 10° NNE
Cosmos 1500 3.3 05:14:50 10° SSW 05:18:33 49° W 05:22:17 10° N
Cosmos 1346 Rocket 4.0 05:16:16 10° WSW 05:19:11 20° WNW 05:22:07 10° NNW
BREEZE-M DEB (TANK) 3.6 05:17:39 16° WNW 05:22:12 38° NNW 05:24:57 10° ENE
COSMO-SKYMED 1 3.9 05:19:36 10° SW 05:22:52 21° W 05:24:39 16° WNW
SOZ 4.3 05:23:30 20° NW 05:24:41 43° NNE 05:26:51 10° ESE
SMAP 3.4 05:20:08 10° NNE 05:24:47 69° ESE 05:29:25 10° S
Cosmos 1486 Rocket 4.3 05:21:09 10° NNW 05:26:27 70° ENE 05:31:40 10° SSE
USA 234 3.7 05:20:54 10° NE 05:26:59 43° NNW 05:33:05 10° W
Meteor 1-5 Rocket 4.4 05:21:35 10° SSW 05:27:24 56° WNW 05:33:08 10° N
Cosmos 44 4.2 05:24:43 13° W 05:27:54 25° NW 05:31:40 10° NNE
Helios 1A Rocket 3.3 05:25:29 10° N 05:29:14 39° WNW 05:32:59 10° SW
GEOS 3 Rocket 4.4 05:24:45 10° S 05:29:21 34° WSW 05:33:30 12° WNW
IRIDIUM 114 4.3 05:24:30 10° N 05:29:45 89° W 05:34:58 10° S
ATLAS 3B R/B 3.8 05:25:42 10° S 05:32:07 48° ESE 05:38:27 10° NE
NOSS 3-2 (C) 3.6 05:26:59 10° SSW 05:32:41 76° ESE 05:39:09 10° NE
Meteor 2-4 Rocket 4.2 05:28:25 10° NNW 05:33:21 36° W 05:38:11 10° SSW
Cosmos 371 Rocket 4.1 05:31:01 10° WSW 05:35:15 30° WNW 05:39:33 10° N
Cosmos 1733 Rocket 3.7 05:31:49 10° SW 05:35:42 32° WNW 05:39:37 10° N
ALOS 3.2 05:32:41 10° NNW 05:36:30 25° WNW 05:40:17 10° WSW
USA 81 4.0 05:32:43 10° N 05:38:01 82° W 05:43:16 10° S
Envisat 4.1 05:33:20 10° NNE 05:38:16 49° E 05:43:11 10° S
Cosmos 2278 Rocket 3.6 05:33:28 10° S 05:38:46 43° ESE 05:44:06 10° NE
IRIDIUM 103 4.3 05:33:41 10° N 05:38:55 74° W 05:44:06 10° S
Cosmos 1066 Rocket 4.3 05:35:03 10° N 05:40:37 83° E 05:46:01 10° SSE
Cosmos 2263 Rocket 3.8 05:39:36 11° WNW 05:41:29 13° NW 05:44:00 10° NNW
Cosmos 1441 Rocket 3.6 05:43:26 10° S 05:47:23 70° E 05:51:18 10° NNE
Okean O Rocket 2.6 05:45:49 10° NNW 05:49:24 25° WNW 05:52:59 10° WSW
Cosmos 2266 Rocket 4.3 05:45:10 10° NNW 05:51:01 45° W 05:56:45 10° SSW
Cosmos 1975 4.3 05:50:34 10° SSE 05:54:19 41° E 05:58:04 10° NNE
NOAA 12 4.2 05:52:50 10° NNE 05:58:06 83° ESE 06:03:20 10° SSW
Cosmos 1833 Rocket 3.5 05:54:44 10° NNW 06:00:15 50° ENE 06:05:42 10° SE
Cosmos 1302 Rocket 4.5 05:56:41 10° SW 06:01:38 40° WNW 06:06:37 10° N
